Regional Weather Roundup
Issued by NWS Binghamton, NY

Current Version | Previous Version | Text Only | Print | Product List | Glossary On
Versions: 1 2 3 4 5 6 7 8 9 10 11 12 13 14 15 16 17 18 19 20 21 22 23 24 25 26 27 28 29 30 31 32 33 34 35 36 37 38 39 40 41 42 43 44 45 46 47 48 49 50
000
ASUS41 KBGM 210010
RWRBGM

REGIONAL WEATHER ROUNDUP
NATIONAL WEATHER SERVICE BINGHAMTON NY
800 PM EDT WED MAR 20 2019

Note: "fair" indicates few or no clouds below 12,000 feet with no
significant weather and/or obstructions to visibility.

* = Station(s) that does not report precipitation, such as rain,
snow, etc, also no thunder or fog.

NYZ009-015>018-022>025-036-037-044>046-055>057-062-210100
...Central New York...

CITY           SKY/WX    TMP DP  RH WIND       PRES   REMARKS
Binghamton     FAIR      42  16  34 S9        30.13S
Cortland       FAIR      41  21  45 S5        30.13S
Dansville      CLOUDY    48  19  31 SE6       30.08F
Elmira         FAIR      46  20  35 S10       30.13R
Seneca Falls   CLEAR     45  25  45 S10       30.11S
Ithaca         FAIR      41  20  43 SE10      30.13F
Hamilton       CLEAR     37  21  52 CALM      30.14S
Monticello     FAIR      41  18  39 S5        30.20F
Norwich        CLEAR     41  18  38 S5        30.15S
Penn Yan       FAIR      42  22  44 S7        30.10F
Rome           FAIR      41  20  43 E5        30.14F
Sidney         CLEAR     39  16  38 CALM      30.16S
Syracuse       FAIR      48  18  30 S10       30.12S
$$

PAZ038>040-043-044-047-048-072-210100
...Northeast Pennsylvania...

CITY           SKY/WX    TMP DP  RH WIND       PRES   REMARKS
Hazleton       FAIR      41  19  42 S5        30.21S
Scranton       FAIR      45  18  34 S3        30.19S
$$
&&
KEY
WCI = Wind Chill Index
VSB = Visibility
HX  = Heat Index
$$



USA.gov is the U.S. government's official web portal to all federal, state and local government web resources and services.